Theta_e
307 306 305 305 305 305 305 306 306 307 308 308 309 309 309 309 310 310 310 310 309 309 309 309 309 309 309 311 309 310 310 309 309 311 309 308 308 308 308 307 306 306 305
305 304 304 303 303 303 303 303 303 303 304 304 306 307 307 308 308 308 308 308 308 308 308 308 308 307 307 307 311 308 308 308 308 307 307 307 307 307 307 306 305 304 304
302 302 301 301 301 301 300 300 300 300 300 300 301 302 303 304 305 306 307 307 306 306 306 306 306 306 306 305 305 305 306 306 306 306 306 306 306 306 306 305 304 304 303
300 300 300 299 299 299 299 298 298 298 298 298 299 299 299 300 301 303 305 305 306 306 306 306 305 304 304 304 303 303 304 303 304 304 305 305 305 304 304 303 303 303 302
298 298 297 297 297 297 297 297 297 297 297 297 298 298 299 299 299 301 303 304 305 305 305 305 304 303 303 302 300 301 302 302 302 302 302 302 302 302 302 302 301 300 299
298 297 296 296 295 295 295 295 295 295 295 295 296 296 296 296 297 299 300 301 302 303 303 303 303 303 302 301 300 300 301 301 300 300 300 300 300 300 300 299 299 297 295
296 296 295 295 294 294 293 293 293 293 293 293 293 294 295 296 296 297 297 298 299 300 300 301 301 300 299 298 296 297 298 299 299 299 298 299 298 298 297 297 297 296 295
295 294 294 293 292 292 292 292 292 292 292 292 292 292 293 294 296 296 296 297 297 298 298 299 298 299 298 295 294 295 296 297 297 298 298 298 297 296 295 295 295 294 291
293 292 291 291 291 291 291 291 291 291 291 291 292 292 292 292 294 295 296 296 296 297 297 297 297 296 295 294 293 294 294 294 295 296 295 295 295 294 293 293 292 291 288
290 290 290 291 291 290 290 290 290 290 291 291 292 293 293 293 293 293 295 295 296 296 296 295 294 293 293 293 293 293 293 293 292 292 292 292 292 292 291 291 291 291 287
290 290 290 290 291 291 291 291 291 291 290 290 291 292 293 293 293 293 294 294 294 294 294 293 292 292 292 291 290 290 290 289 289 289 289 289 290 290 289 289 288 288 287
290 289 289 289 289 289 289 290 290 290 290 290 290 291 291 292 292 293 293 292 291 291 291 291 290 289 289 289 289 289 288 288 288 288 288 287 288 287 287 286 286 285 285
289 289 289 289 289 289 289 289 289 289 289 289 289 290 290 291 291 291 290 290 289 289 289 288 288 288 288 288 288 287 287 287 287 287 286 287 287 287 286 286 285 285 286
289 289 288 288 289 289 289 289 289 288 288 288 288 289 289 289 289 288 288 288 287 287 287 287 287 287 287 287 287 287 287 286 286 286 286 286 287 286 286 286 286 286 286
289 289 288 288 288 289 289 288 288 288 287 287 287 286 286 286 287 287 287 286 286 286 286 286 286 287 287 287 287 287 287 286 286 286 286 287 287 287 287 286 286 286 286
289 289 288 288 287 287 287 288 287 287 286 286 286 285 286 286 287 287 286 286 286 286 286 286 286 286 286 287 287 287 287 286 286 287 287 287 287 287 287 287 287 286 285
287 287 287 287 286 285 285 285 286 287 286 285 285 285 285 285 287 287 286 286 285 286 286 286 286 286 286 286 286 287 287 287 287 287 287 287 287 286 286 286 286 285 285
287 286 285 285 284 283 283 283 283 283 284 285 285 284 284 285 286 286 286 286 286 286 286 286 286 286 286 286 286 286 286 286 286 287 286 286 286 286 285 285 284 284 284
285 285 284 284 283 282 282 282 283 283 283 283 284 284 284 284 285 286 286 286 286 286 285 285 285 285 285 285 285 285 285 285 285 285 285 285 285 284 284 283 283 283 282
284 283 282 282 282 281 282 282 282 282 282 282 283 283 284 284 285 286 286 286 285 285 284 284 284 284 284 284 284 283 283 283 283 282 282 282 282 282 282 281 281 281 280
282 282 281 281 281 280 281 281 281 281 281 282 282 283 283 283 284 284 284 284 283 283 283 283 283 283 282 282 282 281 281 280 280 279 279 279 279 279 279 279 279 278 278
280 280 280 280 280 280 280 280 280 280 280 281 281 281 282 282 282 282 282 282 282 282 282 281 280 279 278 278 278 277 277 277 277 277 276 276 276 276 276 276 276 276 276
279 279 279 279 279 279 279 279 279 279 279 280 280 280 280 280 280 280 280 280 280 278 277 277 277 277 276 276 275 275 274 274 274 274 274 274 273 273 273 273 273 273 273
278 278 278 278 278 277 277 278 278 278 278 278 278 278 279 279 279 278 277 276 276 276 275 275 274 274 274 274 274 273 273 273 273 273 273 273 273 272 272 272 272 271 271
277 276 276 276 276 276 276 276 276 276 276 277 277 277 277 276 275 275 274 274 274 274 273 273 273 273 273 273 273 273 272 272 272 272 272 272 272 272 272 271 271 271 270
275 275 275 275 275 275 275 275 275 275 276 276 276 275 274 275 274 273 273 272 272 272 272 272 272 272 272 272 272 272 272 272 272 271 271 271 271 271 271 270 270 270 269
Wind_Speed
8 9 10 11 11 12 13 14 16 17 18 20 21 22 23 23 24 27 30 32 35 37 38 40 43 42 45 46 46 48 50 49 52 65 50 50 53 52 48 45 43 41 43
8 9 11 11 12 13 15 16 18 19 20 21 22 24 25 27 27 28 29 30 34 37 38 39 41 42 44 44 44 47 50 49 52 54 55 51 53 51 49 47 45 44 42
8 10 11 13 14 15 17 19 21 22 23 25 26 27 28 29 31 32 34 35 34 35 37 38 39 39 42 42 41 45 45 48 49 52 57 51 53 53 51 49 48 46 44
9 11 13 15 17 19 21 24 26 28 29 30 30 31 32 32 32 34 36 38 39 40 40 41 40 39 39 39 41 41 44 45 46 50 53 53 52 53 51 50 49 47 46
12 14 16 19 21 23 26 28 29 30 31 32 33 32 33 33 33 34 35 37 38 40 39 39 40 40 40 38 34 37 38 41 42 45 50 49 49 52 53 50 49 45 44
15 18 21 24 27 29 32 34 35 36 37 37 37 38 38 36 35 35 36 38 38 40 41 41 41 42 41 39 35 33 35 39 44 46 48 47 50 49 50 49 46 41 38
19 22 25 28 31 33 34 35 36 38 39 40 40 40 41 41 39 38 37 39 40 40 40 41 42 41 41 39 36 34 35 37 38 40 44 49 49 48 49 47 44 40 37
24 27 30 32 33 34 34 35 36 38 40 41 42 42 43 44 43 42 41 40 40 39 40 40 40 41 39 37 37 38 38 37 36 36 40 45 45 43 44 45 40 31 28
29 30 30 31 32 33 35 37 38 40 42 42 44 45 45 45 44 43 43 43 43 42 40 38 37 37 36 33 34 38 39 39 35 34 36 39 39 36 32 30 31 27 23
28 28 28 30 32 34 36 38 38 39 42 42 43 42 43 44 43 43 42 41 43 42 41 38 33 30 31 32 33 35 37 37 34 31 29 28 27 25 24 21 24 24 23
27 28 28 29 32 34 37 39 41 41 41 41 42 42 42 41 41 41 40 38 37 38 37 35 33 30 29 29 29 30 31 30 28 24 21 19 15 12 12 13 15 16 22
28 28 31 33 34 35 37 39 40 41 42 43 42 42 42 41 38 36 36 33 30 30 31 30 29 25 23 24 26 27 24 21 21 17 15 12 10 8 9 7 8 12 17
32 33 35 36 36 36 38 39 40 39 40 42 41 42 42 38 35 29 27 26 24 22 22 20 21 23 22 19 16 14 12 10 10 10 8 8 7 4 3 5 6 7 9
34 36 37 38 37 37 38 38 38 37 37 38 38 37 35 33 30 27 26 21 18 15 16 17 15 12 11 10 7 8 7 6 7 6 6 3 2 4 5 7 9 8 7
35 36 36 37 38 39 39 38 38 36 33 33 33 31 29 31 28 25 23 14 13 13 12 8 7 7 9 10 9 9 9 9 7 6 4 5 7 8 8 6 3 2 2
34 35 35 37 38 39 40 41 36 34 29 25 23 22 24 27 24 20 13 9 9 7 4 5 7 7 8 9 9 12 14 10 6 7 7 9 9 6 3 1 1 4 5
33 34 36 37 37 37 36 36 38 32 22 19 18 16 22 22 17 11 5 5 6 2 1 4 6 7 8 9 10 10 11 12 11 9 7 6 4 1 2 4 5 6 6
31 31 32 34 34 33 31 30 28 26 26 17 14 14 16 17 14 9 6 8 5 1 1 3 4 4 4 3 3 3 4 3 3 2 0 2 4 6 7 7 7 7 7
28 28 29 30 30 28 27 24 21 20 19 18 16 15 15 17 13 9 9 9 8 4 2 2 2 3 3 3 4 4 4 4 3 3 3 3 5 6 7 7 7 7 7
25 24 25 26 26 23 21 19 16 15 15 15 16 15 12 10 9 6 7 5 4 3 2 2 2 2 2 3 3 4 4 4 3 3 3 3 4 4 5 5 5 6 7
22 21 20 20 20 19 16 14 12 13 12 11 9 7 2 3 5 5 4 4 3 2 1 1 2 2 3 4 5 5 6 7 7 7 7 8 8 8 7 7 7 8 8
19 18 17 16 15 14 12 10 10 10 9 7 6 3 2 2 2 2 3 2 2 1 0 1 2 3 4 6 7 8 9 10 10 11 11 10 10 10 10 10 10 10 10
16 15 14 13 12 11 10 9 8 8 8 6 5 3 3 3 2 1 1 1 1 2 3 5 6 8 10 11 11 11 11 11 10 10 9 9 9 9 9 9 9 9 10
14 12 11 10 9 8 8 8 8 8 7 6 5 4 3 3 2 3 4 5 6 7 9 10 10 11 10 10 9 8 8 8 9 9 9 9 9 9 9 9 9 9 10
12 11 9 8 8 8 7 7 7 6 6 5 5 4 3 5 6 8 9 10 11 11 10 9 9 8 8 9 9 9 9 10 10 10 10 11 11 11 11 11 11 11 11
12 11 10 9 8 8 8 8 8 8 9 8 7 7 8 10 11 12 11 10 9 8 9 9 9 10 10 11 12 12 13 14 14 14 14 14 14 14 14 14 14 14 14
Wind_Direction
45 31 17 6 1 354 345 338 334 330 326 324 321 318 315 309 303 297 293 290 287 286 284 283 282 281 279 279 280 277 274 271 268 283 279 279 283 286 286 287 285 280 283
14 4 356 352 346 342 340 338 335 334 331 327 323 320 317 316 313 308 303 299 294 291 289 285 284 284 281 277 274 277 274 272 273 272 283 283 284 287 287 286 285 283 282
4 359 354 350 347 346 343 340 338 334 331 328 324 320 316 314 312 310 308 306 303 301 298 295 293 289 286 284 279 277 274 273 273 275 279 283 282 284 284 284 283 283 281
2 357 351 346 343 340 336 332 329 326 324 322 321 320 318 315 312 307 304 302 302 301 301 301 300 296 291 287 283 279 276 274 276 275 276 279 280 280 280 279 281 281 280
357 350 344 338 333 329 326 323 320 318 316 316 315 313 314 314 315 311 306 303 301 300 300 300 299 298 295 291 284 281 275 275 276 275 277 278 274 277 279 283 282 284 283
340 335 331 328 325 323 320 318 315 314 313 312 312 312 312 311 311 309 308 305 303 301 300 298 297 296 295 293 287 279 272 270 271 273 275 273 276 277 282 283 284 279 273
324 323 322 321 320 319 317 315 314 312 311 310 309 308 308 309 310 307 306 303 303 303 302 301 300 299 297 296 293 285 276 270 267 271 273 274 276 277 279 279 279 278 274
319 319 319 318 317 316 315 313 313 311 310 310 308 308 307 307 309 309 309 306 303 301 300 300 299 298 298 299 296 289 283 280 276 272 270 273 274 276 274 277 280 277 263
316 318 318 317 316 315 313 311 309 307 305 304 305 305 305 305 307 307 307 306 304 303 302 298 296 297 298 295 291 292 293 290 287 280 277 276 275 274 271 269 257 250 240
316 318 318 316 313 311 309 306 304 303 302 303 302 303 304 305 307 307 306 305 303 304 303 300 299 300 299 298 294 292 290 292 293 292 286 281 277 267 267 260 260 253 228
314 315 315 314 312 310 309 308 308 304 301 301 303 303 305 308 309 307 306 304 302 301 299 301 304 303 298 297 295 291 291 295 292 296 295 293 286 270 252 243 249 249 234
313 313 313 313 310 308 307 309 309 308 306 304 305 305 306 310 312 308 305 303 301 297 297 299 302 307 306 304 300 297 295 292 294 298 301 302 292 265 239 225 208 223 230
312 311 309 309 309 307 306 306 306 308 307 307 307 307 307 312 316 315 308 307 304 301 301 306 307 308 309 310 313 318 314 313 308 312 301 288 265 253 177 172 181 197 223
315 312 309 307 308 309 309 307 307 308 307 306 304 303 306 312 321 320 318 313 314 308 307 311 320 336 347 355 6 3 2 6 351 344 320 284 217 167 153 168 152 158 172
318 316 313 310 311 310 310 310 309 309 309 304 298 301 307 309 313 309 313 313 311 313 325 344 10 31 38 35 34 32 20 19 31 42 73 119 130 130 128 132 136 163 226
318 317 316 313 313 313 313 311 310 312 310 301 289 285 288 294 304 303 295 299 309 325 8 43 49 56 58 43 44 48 47 46 71 72 107 120 115 102 84 53 318 286 281
316 316 314 312 312 312 313 314 313 313 314 304 295 281 284 293 305 293 280 291 287 318 136 77 64 64 69 71 73 62 55 58 66 78 97 117 137 190 321 321 309 300 290
314 314 312 312 312 313 314 314 312 314 318 317 303 292 278 285 297 282 243 248 268 277 77 85 78 75 72 64 51 40 33 33 42 59 203 248 261 279 296 303 301 292 284
315 316 313 312 312 313 314 313 314 314 312 307 305 296 280 276 283 268 240 245 241 239 177 116 77 68 67 56 44 30 20 9 2 343 318 297 290 291 292 292 289 284 278
315 315 313 313 314 315 315 314 318 311 301 300 302 300 280 262 258 248 227 214 203 195 176 123 85 56 36 26 19 16 13 7 3 355 340 325 313 308 306 304 300 292 284
316 317 313 312 313 317 315 314 311 300 297 300 313 321 333 278 239 217 197 183 172 157 134 82 57 23 3 352 351 348 344 340 337 335 333 330 326 323 317 313 306 295 289
315 315 314 313 315 316 312 309 301 289 287 291 301 317 288 251 200 178 171 171 171 168 205 323 324 323 326 326 324 322 319 318 318 317 317 316 316 313 310 306 300 295 289
309 309 308 309 312 309 305 297 286 278 275 274 272 270 260 249 235 214 204 236 317 320 308 308 310 310 311 311 311 311 312 313 315 316 318 320 319 315 311 306 300 293 287
300 301 301 300 300 295 288 281 274 267 264 262 259 254 253 254 276 318 312 297 296 299 301 302 303 305 309 312 316 321 326 329 326 326 328 328 325 320 314 308 303 296 289
289 291 291 291 289 285 278 268 260 256 254 250 248 257 281 299 293 292 295 299 301 302 304 307 313 317 317 317 319 321 323 322 321 322 321 319 316 312 309 308 305 299 291
276 277 278 277 277 275 272 271 267 262 257 255 260 271 279 285 290 291 292 294 298 303 306 308 310 311 311 310 310 309 308 307 305 305 304 304 302 301 302 302 300 296 292